This is the latest recevied weather packets stored in our database for station/object KN6WGU. If no packets are shown the sender has not sent any weather packets the latest 10 day(s).
| Time | Temp. | Humidity | Pressure | Rain* | Wind** | Luminosity | Snow |
|---|---|---|---|---|---|---|---|
| 1787830910 | 18.89° C | 99% | 1006.4 hPa | 0 mm | - | 23 W/m² | - |
| 1787830610 | 18.89° C | 99% | 1006.3 hPa | 0 mm | - | 20 W/m² | - |
| 1787830309 | 18.89° C | 99% | 1006.4 hPa | 0 mm | - | 22 W/m² | - |
| 1787830004 | 18.33° C | 99% | 1006.2 hPa | 0 mm | - | 20 W/m² | - |
| 1787829704 | 18.33° C | 99% | 1006.3 hPa | 0 mm | - | 15 W/m² | - |
| 1787829399 | 18.33° C | 99% | 1006.3 hPa | 0 mm | - | 12 W/m² | - |
| 1787829096 | 17.78° C | 99% | 1006.2 hPa | 0 mm | - | 10 W/m² | - |
| 1787828796 | 17.78° C | 99% | 1006.3 hPa | 0 mm | - | 7 W/m² | - |
| 1787828493 | 18.33° C | 99% | 1006.2 hPa | 0 mm | - | 5 W/m² | - |
| 1787828191 | 18.33° C | 99% | 1006 hPa | 0 mm | - | 4 W/m² | - |
| 1787827891 | 18.33° C | 99% | 1006 hPa | 0 mm | - | 2 W/m² | - |
| 1787827586 | 18.33° C | 99% | 1006 hPa | 0 mm | - | 1 W/m² | - |
| 1787827280 | 18.33° C | 99% | 1006.1 hPa | 0 mm | - | 1 W/m² | - |
| 1787826979 | 18.33° C | 99% | 1006 hPa | 0 mm | - | 0 W/m² | - |
| 1787826679 | 18.33° C | 99% | 1005.9 hPa | 0 mm | - | 0 W/m² | - |
| 1787826374 | 18.33° C | 99% | 1005.7 hPa | 0 mm | - | 0 W/m² | - |
| 1787826071 | 18.33° C | 99% | 1005.9 hPa | 0 mm | - | 0 W/m² | - |
| 1787825769 | 18.33° C | 99% | 1005.7 hPa | 0 mm | - | 0 W/m² | - |
| 1787825468 | 18.33° C | 99% | 1005.7 hPa | 0 mm | - | 0 W/m² | - |
| 1787825169 | 18.33° C | 99% | 1005.7 hPa | 0 mm | - | 0 W/m² | - |
| 1787824866 | 18.89° C | 98% | 1005.7 hPa | 0 mm | - | 0 W/m² | - |
| 1787824560 | 18.89° C | 99% | 1005.9 hPa | 0 mm | - | 0 W/m² | - |
| 1787824254 | 18.33° C | 98% | 1005.7 hPa | 0 mm | - | 0 W/m² | - |
| 1787823951 | 18.89° C | 98% | 1005.9 hPa | 0 mm | - | 0 W/m² | - |
| 1787823645 | 18.89° C | 98% | 1005.4 hPa | 0 mm | - | 0 W/m² | - |
* Rain latest hour (hover to see other rain measurements)
** Current wind speed in m/s (hover to see current wind gust speed)